Weather History for Biloxi, MS

Change the Weather History Date:

Monday, May 14, 2012

  Actual Average Record
Temperature  
Mean Temperature 72 °F -  
Max Temperature 81 °F 82 °F 88 °F (1959)
Min Temperature 65 °F 65 °F 51 °F (1977)
Cooling Degree Days 8    
Growing Degree Days 22 (Base 50)    
Moisture  
Dew Point 66 °F    
Average Humidity 78    
Maximum Humidity 99    
Minimum Humidity 61    
Precipitation  
Precipitation 0.00 in - - ()
Sea Level Pressure  
Sea Level Pressure 29.99 in    
Wind  
Wind Speed 4 mph (NW)    
Max Wind Speed 14 mph    
Max Gust Speed -    
Visibility 10 miles    
Events Rain    
Averages and records for this station are not official NWS values.
T = Trace of Precipitation, MM = Missing Value Source: NWS Daily Summary

Daily Weather History Graph

Daily Weather History Graph

Search for Another Location

Airport:

Trip Planner

Search our weather history database for the weather conditions in past years. The results will help you decide how hot, cold, wet, or windy it might be!

Date:

Astronomy

May. 14, 2012 Rise Set
Actual Time 6:01 AM CDT 7:42 PM CDT
Civil Twilight 5:35 AM CDT 8:08 PM CDT
Nautical Twilight 5:04 AM CDT 8:40 PM CDT
Astronomical Twilight 4:30 AM CDT 9:13 PM CDT
Moon 2:12 AM CDT (5/14) 2:24 PM CDT (5/14)
Length of Visible Light 14h 33m
Length of Day
13h 40m
Waning Crescent, 32% of the Moon is Illuminated
May 14
Waning Crescent
May 20
New
May 28
First Quarter
Jun 4
Full
Jun 11
Last Quarter

Hourly Weather History & Observations

Time (CDT) Temp. Heat Index Dew Point Humidity Pressure Visibility Wind Dir Wind Speed Gust Speed Precip Events Conditions
12:55 AM 69.3 °F - 64.9 °F 86% 30.01 in 10.0 mi Variable 3.5 mph - N/A   Clear
1:55 AM 68.2 °F - 64.9 °F 89% 30.00 in 10.0 mi Calm Calm - N/A   Clear
2:55 AM 67.5 °F - 65.5 °F 93% 30.00 in 10.0 mi Calm Calm - N/A   Mostly Cloudy
3:55 AM 66.9 °F - 65.5 °F 95% 29.99 in 10.0 mi Calm Calm - N/A   Partly Cloudy
4:55 AM 66.2 °F - 65.8 °F 99% 29.98 in 10.0 mi Calm Calm - N/A   Clear
5:55 AM 65.5 °F - 65.1 °F 99% 29.99 in 10.0 mi Calm Calm - N/A   Clear
7:55 AM 68.4 °F - 66.2 °F 93% 30.02 in 10.0 mi North 10.4 mph - N/A   Partly Cloudy
8:07 AM 68.0 °F - 66.2 °F 94% 30.02 in 10.0 mi North 8.1 mph - N/A   Partly Cloudy
8:55 AM 70.7 °F - 65.1 °F 82% 30.03 in 10.0 mi North 8.1 mph - N/A   Clear
9:55 AM 73.9 °F - 65.3 °F 74% 30.04 in 10.0 mi NNW 3.5 mph - N/A   Clear
10:55 AM 76.8 °F - 64.8 °F 66% 30.04 in 10.0 mi WNW 4.6 mph - N/A   Scattered Clouds
11:55 AM 80.4 °F 82.7 °F 66.6 °F 63% 30.03 in 10.0 mi WNW 4.6 mph - N/A   Scattered Clouds
12:55 PM 79.9 °F - 65.5 °F 61% 30.01 in 10.0 mi SSW 8.1 mph - N/A   Mostly Cloudy
1:55 PM 79.0 °F - 64.8 °F 62% 29.99 in 10.0 mi Calm Calm - N/A   Mostly Cloudy
2:55 PM 79.7 °F - 67.6 °F 66% 29.96 in 10.0 mi SW 13.8 mph - N/A   Scattered Clouds
3:55 PM 80.1 °F 82.6 °F 67.6 °F 66% 29.94 in 10.0 mi SW 11.5 mph - N/A   Partly Cloudy
4:55 PM 80.2 °F 82.6 °F 66.9 °F 64% 29.94 in 10.0 mi Variable 6.9 mph - N/A   Partly Cloudy
5:55 PM 77.5 °F - 66.4 °F 68% 29.93 in 10.0 mi Variable 5.8 mph - N/A   Partly Cloudy
6:55 PM 77.4 °F - 66.2 °F 68% 29.94 in 10.0 mi WSW 5.8 mph - N/A   Overcast
7:55 PM 75.6 °F - 65.7 °F 71% 29.96 in 10.0 mi WSW 3.5 mph - N/A   Mostly Cloudy
8:53 PM 73.4 °F - 66.2 °F 78% 29.96 in 10.0 mi Calm Calm - N/A Rain Light Rain
8:55 PM 74.3 °F - 66.4 °F 76% 29.96 in 10.0 mi Calm Calm - 0.00 in Rain Light Rain
8:57 PM 75.2 °F - 66.2 °F 73% 29.97 in 10.0 mi Calm Calm - N/A   Clear
9:55 PM 74.3 °F - 67.8 °F 80% 29.99 in 10.0 mi Calm Calm - 0.00 in   Mostly Cloudy
10:55 PM 73.4 °F - 66.9 °F 80% 29.98 in 10.0 mi NE 3.5 mph - N/A   Partly Cloudy
11:55 PM 73.4 °F - 65.1 °F 75% 29.98 in 10.0 mi NNE 5.8 mph - N/A   Overcast